Flag Weather past 2 weeks in Victorville, California, U.S.A.

Now
43 °F

Clear.


Feels Like: 40 °F
Forecast: 45 / 76 °F
Wind: 5 mph from South

Location: George Air Force Base / Victorvi

Current Time: Nov 27, 2014 at 10:25:39 PM

Latest Report: Nov 27, 2014 at 9:55 PM


Visibility: 10 mi

Pressure: 30.16 "Hg

Humidity: 26%

Dew point: 10 °F

Location of VictorvilleLocation

Historic Weather in Victorville — Graph

°F

Victorville temperature yesterday

Maximum temperature yesterday: 72 °F (at 1:55 PM)
Minimum temperature yesterday: 36 °F (at 5:35 AM)
Average temperature yesterday: 52 °F

Past Weeks' High & Low Weather Summary

 TemperatureHumidityPressure
High72 °F (Nov 13, 12:15 PM)82% (Nov 12, 10:15 PM)30.50 "Hg (Nov 12, 10:15 PM)
Low30 °F (Nov 17, 6:15 AM)8% (Nov 16, 10:55 AM)29.93 "Hg (Nov 21, 2:35 AM)
Average51 °F36%30.17 "Hg
* Reported Nov 12 9:15 PM — Nov 27 9:15 PM, Victorville, Weather by CustomWeather, © 2014

Note: Actual official high and low records may vary slightly from our data, if they occured in-between our weather recording intervals... More about our weather records

Advertising

Victorville weather history for previous 24 hours

 ConditionsComfort  
Time TempWeatherWind HumidityBarometerVisibility
9:15 PM
Nov 27
43 °FClear.5 mph24%30.16 "Hg10 mi
8:55 PM45 °FClear.3 mph25%30.16 "Hg10 mi
8:15 PM46 °FClear.3 mph23%30.16 "Hg7 mi
7:15 PM48 °FClear.5 mph21%30.16 "Hg10 mi
6:35 PM52 °FClear.No wind19%30.15 "Hg10 mi
6:15 PM55 °FClear.No wind18%30.16 "Hg10 mi
5:55 PM57 °FClear.3 mph17%30.17 "Hg10 mi
5:35 PM55 °FClear.No wind16%30.16 "Hg10 mi
5:15 PM61 °FClear.No wind15%30.17 "Hg10 mi
4:55 PM64 °FClear.No wind14%30.16 "Hg10 mi
4:35 PM66 °FSunny.No wind13%30.16 "Hg10 mi
4:15 PM68 °FSunny.No wind12%30.17 "Hg10 mi
3:55 PM70 °FSunny.No wind12%30.17 "Hg10 mi
3:15 PM70 °FSunny.3 mph12%30.18 "Hg10 mi
2:55 PM70 °FScattered clouds.3 mph12%30.18 "Hg10 mi
2:15 PM70 °FSunny.3 mph12%30.18 "Hg10 mi
1:55 PM70 °FScattered clouds.5 mph12%30.18 "Hg10 mi
1:35 PM68 °FScattered clouds.5 mph12%30.19 "Hg10 mi
1:15 PM68 °FScattered clouds.7 mph12%30.20 "Hg10 mi
12:55 PM68 °FScattered clouds.7 mph11%30.21 "Hg10 mi
12:35 PM68 °FScattered clouds.6 mph11%30.22 "Hg10 mi
12:15 PM66 °FScattered clouds.3 mph12%30.22 "Hg10 mi
11:55 AM66 °FScattered clouds.5 mph13%30.23 "Hg10 mi
11:35 AM66 °FScattered clouds.5 mph12%30.24 "Hg10 mi
11:15 AM64 °FScattered clouds.3 mph13%30.25 "Hg10 mi
10:55 AM63 °FScattered clouds.No wind15%30.26 "Hg10 mi
10:35 AM63 °FScattered clouds.No wind15%30.27 "Hg10 mi
10:15 AM61 °FSunny.No wind16%30.28 "Hg10 mi
9:55 AM57 °FSunny.No wind17%30.29 "Hg10 mi
9:35 AM55 °FSunny.No wind18%30.29 "Hg10 mi
9:15 AM54 °FScattered clouds.No wind19%30.29 "Hg10 mi
8:55 AM54 °FScattered clouds.5 mph19%30.29 "Hg10 mi
8:35 AM52 °FSunny.5 mph24%30.29 "Hg10 mi
8:15 AM48 °FCool.5 mph27%30.29 "Hg10 mi
7:55 AM43 °FSunny.6 mph34%30.30 "Hg10 mi
7:35 AM39 °FSunny.6 mph36%30.30 "Hg10 mi
7:15 AM39 °FChilly.3 mph33%30.29 "Hg10 mi
6:55 AM39 °FChilly.6 mph33%30.29 "Hg10 mi
6:15 AM39 °FChilly.6 mph33%30.28 "Hg10 mi
5:55 AM39 °FChilly.7 mph33%30.27 "Hg10 mi
5:35 AM37 °FClear.7 mph35%30.27 "Hg10 mi
5:15 AM37 °FClear.6 mph33%30.27 "Hg10 mi
4:55 AM37 °FClear.5 mph33%30.27 "Hg10 mi
4:35 AM39 °FClear.5 mph33%30.27 "Hg10 mi
4:15 AM37 °FClear.6 mph35%30.27 "Hg10 mi
3:55 AM41 °FClear.5 mph31%30.27 "Hg10 mi
3:35 AM45 °FClear.6 mph29%30.27 "Hg10 mi
3:15 AM45 °FQuite cool.7 mph29%30.28 "Hg10 mi
2:55 AM43 °FQuite cool.9 mph29%30.28 "Hg10 mi
2:35 AM41 °FQuite cool.5 mph31%30.29 "Hg10 mi
2:15 AM41 °FQuite cool.7 mph31%30.29 "Hg10 mi
1:55 AM45 °FQuite cool.5 mph29%30.30 "Hg10 mi
1:35 AM46 °FCool.7 mph27%30.29 "Hg10 mi
1:15 AM43 °FQuite cool.8 mph29%30.29 "Hg10 mi
12:15 AM43 °FClear.8 mph26%30.30 "Hg10 mi
11:55 PM
Nov 26
45 °FClear.9 mph25%30.30 "Hg10 mi
11:35 PM46 °FClear.7 mph23%30.31 "Hg10 mi
11:15 PM45 °FClear.8 mph25%30.31 "Hg10 mi
10:55 PM46 °FClear.7 mph21%30.31 "Hg10 mi
10:35 PM46 °FClear.6 mph21%30.32 "Hg10 mi
10:15 PM48 °FClear.5 mph20%30.31 "Hg10 mi
Weather by CustomWeather, © 2014

See weather overviewHow to use our weather pages